Location: Newark
(34.9500°N, 139.9667°E)
Time: 06:31:23
(UTC+00:00)

Envisat - Visible Passes

Search period start: 18 November 2019 00:00
Search period end: 28 November 2019 00:00
Orbit: 764 x 766 km, 98.1° (Epoch: 17 November)

Date Brightness Start Highest point End Pass type
(mag) Time Alt. Az. Time Alt. Az. Time Alt. Az.
18 Nov 4.8 09:30:52 10° SSW 09:35:20 31° W 09:39:50 10° NW visible
18 Nov 6.5 20:06:58 10° ENE 20:08:01 11° E 20:09:05 10° ESE visible
19 Nov 3.2 08:53:25 10° S 08:58:28 76° WSW 09:03:33 10° NNW visible
20 Nov 3.2 08:16:59 10° SE 08:21:48 45° ENE 08:26:38 10° N visible
20 Nov 5.7 09:57:45 10° SW 10:01:00 17° W 10:04:16 10° NW visible
20 Nov 5.9 20:30:01 10° NE 20:33:45 21° E 20:37:30 10° SE visible
21 Nov 4.3 09:19:16 10° SSW 09:24:00 40° W 09:28:47 10° NNW visible
22 Nov 2.9 08:42:08 10° SSE 08:47:12 84° ENE 08:52:18 10° N visible
23 Nov 3.5 08:06:01 10° SE 08:10:35 35° ENE 08:15:11 10° N visible
23 Nov 5.4 09:45:45 10° SW 09:49:38 22° W 09:53:33 10° NW visible
23 Nov 6.0 20:19:21 10° NE 20:22:24 16° E 20:25:25 10° SE visible
24 Nov 3.8 09:07:46 10° S 09:12:42 52° W 09:17:40 10° NNW visible
25 Nov 2.9 08:30:57 10° SSE 08:35:57 65° ENE 08:41:00 10° N visible
25 Nov 6.2 10:13:39 10° WSW 10:15:21 12° W 10:17:04 10° WNW visible
25 Nov 5.3 20:43:40 10° NE 20:48:04 29° E 20:52:27 10° SSE visible
26 Nov 3.8 07:55:08 10° SE 07:59:24 28° ENE 08:03:40 10° NNE visible
26 Nov 5.0 09:33:57 10° SSW 09:38:17 28° W 09:42:39 10° NW visible
26 Nov 6.3 20:09:07 10° ENE 20:11:00 12° E 20:12:54 10° ESE visible
27 Nov 3.3 08:56:23 10° S 09:01:25 69° WSW 09:06:29 10° NNW visible
